< < Back
Terminal Aerodrome Forecast


Current Version              Previous Versions:   1  2  3  4  5  6  7  8  9  

Terminal Aerodrome Forecast

216
FTUS44 KMOB 281134
TAFPNS
TAF
KPNS 281134Z 2812/2912 36003KT P6SM SKC
     FM281800 14007KT P6SM FEW050
     FM282100 15009KT P6SM VCTS SCT250CB
     FM290000 20006KT P6SM SKC=



Latest METAR

512
SAUS70 KWBC 290000 RRD
MTRPNS
METAR KPNS 282353Z 17007KT 10SM CLR 28/20 A2997 RMK AO2 SLP149 T02830200
10311 20283 53004


USA.gov is the U.S. government's official web portal to all federal, state and local government web resources and services.